Welcome to The Terminal

Map Downloads:

134 maps found
Name Type Author Date Downloads Rating
Amaplanca II TSC Gwizz 09/10/02 1648 50% (1)
Apple War Ooze TSC Gwizz 21/05/02 1867 0% (0)
Arboria TSC Anders Robert Pilgaard 21/05/02 1757 0% (0)
Atlantis National Railways TSC Anders Robert Pilgaard 21/05/02 3045 100% (2)
Atoll RRT2 Gwizz 21/05/02 1564 70% (2)
Atoll Temple RRT2 Gwizz 21/05/02 1371 0% (0)
Auf Der Flucht RRT2 Robert the "porky" 21/05/02 1694 75% (2)
Aurelia 1862 TSC Anders Robert Pilgaard 21/05/02 1505 0% (0)
Bex TSC Adam 21/05/02 1337 0% (0)
Big Apple II RRT2 PopTop Software 21/05/02 2281 80% (1)
Big Apple IIe TSC Steve Lorenz 21/05/02 1280 0% (0)
Borduria TSC Anders Robert Pilgaard 21/05/02 1497 0% (0)
Britannia RRT2 J Sylvest and GS Bales 21/05/02 1877 0% (0)
Bulvanian Petroleoum TSC Toni Ronkko 24/09/02 2041 50% (2)
Changes In Transportation RRT2 Brian Duarte 21/05/02 2165 0% (0)
Cheryls Valley RRT2 Tigger 21/05/02 1528 0% (0)
Closa RRT2 Darrell 21/05/02 1360 0% (0)
Coal Country RRT2 Sirian 21/05/02 2286 0% (0)
Coast Line TSC Lars Maischak 15/06/03 1452 100% (1)
Colorz! RRT2 Bill Ingram 21/05/02 1702 85% (2)
Copalis RRT2 Mike Burke & Jamie Burnett 21/05/02 1742 95% (2)
Corsairland RRT2 Kent Powderly 21/05/02 1916 0% (0)
County Sodenstein TSC Lars Maischak 15/06/03 1131 60% (1)
Darkmere RRT2 Ian Lewis 21/05/02 1569 0% (0)
Docklands RRT2 Jonathon James Tan 21/05/02 1813 20% (1)
DragonIsle RRT2 Unknown 21/05/02 1667 0% (0)
Edland RRT2 Eddie Bangor 21/05/02 1945 100% (1)
Euphoria TSC PopTop Software 21/05/02 1316 90% (1)
Fantasia TSC Anders Robert Pilgaard 21/05/02 1248 0% (0)
File Island TSC Jimmy Chau 09/12/05 3032 90% (1)
Final Fantasy 7 TSC Matthew Willis 21/05/02 1701 0% (0)
Fisland RRT2 Dave Donaldson 21/05/02 1881 100% (1)
Free Four All RRT2 Sirian 21/05/02 1703 100% (1)
Gateway to Paradise TSC Matthew Asnip 21/05/02 2013 0% (0)
Gateway to Paradise (Light) TSC Matthew Asnip 21/05/02 1004 0% (0)
Gold Rush! RRT2 Andrew Mark Schwartz 21/05/02 2225 0% (0)
Golden Fjords Scenic RRT2 Kent Powderly 21/05/02 1656 0% (0)
Grand Prix RRT2 Sirian 21/05/02 2033 89% (7)
Great Crater RRT2 Kent Powderly 21/05/02 2303 90% (1)
Green Mars RRT2 Gonzo 21/05/02 2195 0% (0)
Grosetania RRT2 Whitey 21/05/02 1459 0% (0)
Hail Sevastia TSC David Masters 21/05/02 1417 45% (2)
Hibirnia TSC Anders Robert Pilgaard 21/05/02 1361 0% (0)
High Desert RRT2 Dave 21/05/02 2240 0% (0)
High Desert 2 TSC A. Gracier 21/05/02 1585 0% (0)
Industrial Fixer Upper TSC Gwizz 21/05/02 1392 70% (1)
Island Conquest TSC James Stevens 21/05/02 1255 0% (0)
Kingdom of Tara TSC Anders Robert Pilgaard 21/05/02 1470 30% (1)
Kua'Apuanii TSC PopTop Software 21/05/02 1159 0% (0)
Lagoria TSC Anders Robert Pilgaard 21/05/02 3621 0% (0)
Lala-land TSC Robbie Langton 19/04/04 1513 0% (0)
Lusitania TSC Anders Robert Pilgaard 21/05/02 1474 50% (1)
Mad King Ed TSC Eddie Bangor 21/05/02 1372 90% (1)
Mad King Ed RRT2 Eddie Bangor 21/05/02 1376 0% (0)
Majode TSC Mark Confer 20/02/04 1539 100% (2)
Making The Grade RRT2 Sirian 21/05/02 1815 100% (2)
Making The Grade RRT2 Sirian 21/05/02 1110 0% (0)
Mars RRT2 James Stevens 21/05/02 1599 0% (0)
Mars TSC James Stevens 21/05/02 1240 0% (0)
Mason County RRT2 Mike Gasaway 21/05/02 1444 0% (0)
Metro31-H RRT2 Unknown 21/05/02 1908 0% (0)
Middle Earth RRT2 Kent Powderly 21/05/02 4103 0% (0)
Military 12 TSC Kraellin 21/05/02 1782 30% (1)
MongoIsland TSC Anders Robert Pilgaard 21/05/02 1107 0% (0)
Montania 1858 TSC Anders Robert Pilgaard 21/05/02 1317 0% (0)
Morietzia RRT2 Unknown 21/05/02 1546 0% (0)
Mtron '99 TSC James Stevens 21/05/02 1059 0% (0)
New Eden TSC Marco Stefanutti 21/05/02 2445 0% (0)
Oceania RRT2 Eckhard Flor 21/05/02 1927 0% (0)
Oceania 1862 TSC Anders Robert Pilgaard 21/05/02 1380 0% (0)
Ourcadia RRT2 Rodolphe Bourgouin 21/05/02 1220 0% (0)
Overpass TSC Steve Lorenz 21/05/02 937 0% (0)
Overpass & Tunnels TSC David Gross 21/05/02 1326 0% (0)
Paradise 2000 TSC Rick Bottens 21/05/02 1237 0% (0)
Parniath Bridge TSC PopTop Software 21/05/02 1255 0% (0)
Party Machines TSC Lars Maischak 21/05/02 1492 80% (1)
Patagonia RRT2 [pro] 21/05/02 1681 0% (0)
Peninsula RRT2 Anders Robert Pilgaard 21/05/02 1424 0% (0)
Peninsula 2 TSC Anders Robert Pilgaard 03/06/02 2180 0% (0)
Quickie 2A TSC Unknown 21/05/02 911 0% (0)
Royal Empress TSC Jon Calon 21/05/02 1371 0% (0)
Sarelia TSC Anders Robert Pilgaard 21/05/02 1797 80% (1)
Something Trekky TSC James Stevens 21/05/02 1050 0% (0)
Starship Troopers TSC Steve Lorenz 21/05/02 1941 100% (1)
Strange Glue RRT2 James Stevens 21/05/02 1289 0% (0)
Sylvania TSC Anders Robert Pilgaard 21/05/02 2302 0% (0)
Tanagore Island TSC David Masters 21/05/02 1254 0% (0)
Taresia TSC Anders Robert Pilgaard 03/06/02 1075 0% (0)
Tatooine RRT2 Andy Moorer 21/05/02 1934 0% (0)
Tehos RRT2 Juho Tiettinen 15/06/03 1290 0% (0)
TehoWorld RRT2 Juho Tiettinen 15/06/03 2464 0% (0)
Terra Aqueos RRT2 James Wellham 21/05/02 1669 100% (1)
Tester TSC Steve Lorenz 21/05/02 1119 0% (0)
Tester RRT2 Steve Lorenz 21/05/02 1215 0% (0)
The Darkening 1 TSC James Stevens 21/05/02 1381 80% (1)
The Darkening 2 TSC James Stevens 21/05/02 1080 10% (1)
The Darkening 3: Unite the States TSC James Stevens 21/05/02 1370 90% (1)
The Darkening 4: Floods Legacy TSC James Stevens 21/05/02 1236 0% (0)
The Iron Spike TSC Overlord 15/06/03 2382 0% (0)
The Main Vein RRT2 Derek D 21/05/02 1310 0% (0)
The Mines RRT2 Tony J Frank 21/05/02 1954 0% (0)
The National World TSC Matthew Tam 21/05/02 1453 0% (0)
The World Map TSC Matthew Tam 21/05/02 2309 0% (0)
Tidland TSC James E. Petts 21/05/02 1002 0% (0)
Tolnedran Imperial Railway TSC Richard Lally 21/05/02 1692 0% (0)
Towers Of Hell TSC James Stevens 21/05/02 995 0% (0)
Train Island RRT2 Jonathan 21/05/02 1252 0% (0)
Treasure Island RRT2 Unknown 21/05/02 1934 0% (0)
Utopia RRT2 Cecil Harper 21/05/02 1838 0% (0)
Utopia TSC Anders Robert Pilgaard 21/05/02 1248 0% (0)
Utopia 2 TSC Anders Robert Pilgaard 21/05/02 1464 0% (0)
Venturia TSC Anders Robert Pilgaard 03/06/02 2291 0% (0)
Vulcano RRT2 Martijn ter Haar 21/05/02 1186 0% (0)
Witch's Route TSC Charles Swain 21/05/02 1056 10% (1)
WNE 01: Map One RRT2 James Stevens 21/05/02 1432 0% (0)
WNE 02: Switzlerland 2099 RRT2 James Stevens 21/05/02 1743 0% (0)
WNE 03: Appleasia RRT2 James Stevens 21/05/02 1400 0% (0)
WNE 04: Begin Again RRT2 James Stevens 21/05/02 1375 0% (0)
WNE 05: Mars Corp RRT2 James Stevens 21/05/02 1323 0% (0)
WNE 06: The Freedom Movement RRT2 James Stevens 21/05/02 1149 0% (0)
WNE 07: Titan: The New Earth? RRT2 James Stevens 21/05/02 1713 0% (0)
WNE 08: Titan: Last Rights RRT2 James Stevens 21/05/02 1399 30% (1)
WNE 09: Erase/Rewind RRT2 James Stevens 21/05/02 1517 0% (0)
WNE 10: Reunification RRT2 James Stevens 21/05/02 1139 0% (0)
WNE 11: Future's End TSC James Stevens 21/05/02 1240 0% (0)
WNE 12: Test Of Time TSC James Stevens 21/05/02 1226 75% (2)
WNE 13: The Awakening RRT2 James Stevens 21/05/02 1268 0% (0)
WNE 14: The Money Pit RRT2 James Stevens 21/05/02 1331 0% (0)
WNE 15: Scorched Earth RRT2 James Stevens 21/05/02 1372 0% (0)
WNE 16: The Launch RRT2 James Stevens 21/05/02 1304 0% (0)
WNE 17: Rising Star RRT2 James Stevens 21/05/02 1077 0% (0)
WNE 18: Cold War RRT2 James Stevens 21/05/02 1330 0% (0)
WNE 19: For Gorwin's Honour RRT2 James Stevens 21/05/02 1395 0% (0)
WNE 20: From Hell's Heart... TSC James Stevens 21/05/02 1052 0% (0)

Site created April 23, 1998. © Jesse Reid, All Rights Reserved, 2003.